"Period start","avg(HW err(1)/warn(2) (#))","avg(Visibility (m))","avg(Weather code (#))","avg(Precip intensity (mm/h))","min(HW err(1)/warn(2) (#))","max(HW err(1)/warn(2) (#))","std(HW err(1)/warn(2) (#))","med(HW err(1)/warn(2) (#))","min(Visibility (m))","max(Visibility (m))","std(Visibility (m))","med(Visibility (m))","min(Weather code (#))","max(Weather code (#))","std(Weather code (#))","med(Weather code (#))","min(Precip intensity (mm/h))","max(Precip intensity (mm/h))","std(Precip intensity (mm/h))","med(Precip intensity (mm/h))"
2014-03-27 00:00:00,2,41412,0,0.00,2,2,0,2,32000,50000,5604,41572,0,0,0,0,0.00,0.00,0.00,0.00
2014-03-27 00:10:00,2,34005,0,0.00,2,2,0,2,27603,41327,4947,34885,0,0,0,0,0.00,0.00,0.00,0.00
2014-03-27 00:20:00,2,27584,0,0.00,2,2,0,2,17363,33481,4537,28458,0,0,0,0,0.00,0.00,0.00,0.00
2014-03-27 00:30:00,2,36577,0,0.00,2,2,0,2,20039,50000,7786,37218,0,0,0,0,0.00,0.00,0.00,0.00
2014-03-27 00:40:00,2,38565,0,0.00,2,2,0,2,19382,50000,8787,40658,0,0,0,0,0.00,0.00,0.00,0.00
2014-03-27 00:50:00,2,31029,0,0.00,2,2,0,2,23126,48892,8724,28575,0,0,0,0,0.00,0.00,0.00,0.00
2014-03-27 01:00:00,2,34921,0,0.00,2,2,0,2,27476,41374,4895,36040,0,0,0,0,0.00,0.00,0.00,0.00
2014-03-27 01:10:00,2,31028,0,0.00,2,2,0,2,18069,50000,10465,28920,0,0,0,0,0.00,0.00,0.00,0.00
2014-03-27 01:20:00,2,35034,0,0.00,2,2,0,2,29289,45544,4733,34747,0,0,0,0,0.00,0.00,0.00,0.00
2014-03-27 01:30:00,2,30168,0,0.00,2,2,0,2,15430,50000,11026,33726,0,0,0,0,0.00,0.00,0.00,0.00
2014-03-27 01:40:00,2,36136,0,0.00,2,2,0,2,29043,45668,6020,33866,0,0,0,0,0.00,0.00,0.00,0.00
2014-03-27 01:50:00,2,41398,0,0.00,2,2,0,2,28741,50000,8669,44223,0,0,0,0,0.00,0.00,0.00,0.00
2014-03-27 02:00:00,2,33318,0,0.00,2,2,0,2,20673,50000,8603,29762,0,0,0,0,0.00,0.00,0.00,0.00
2014-03-27 02:10:00,2,37890,0,0.00,2,2,0,2,22968,48298,9533,41198,0,0,0,0,0.00,0.00,0.00,0.00
2014-03-27 02:20:00,2,32905,0,0.00,2,2,0,2,23106,46633,8443,29508,0,0,0,0,0.00,0.00,0.00,0.00
2014-03-27 02:30:00,2,39455,0,0.00,2,2,0,2,29055,50000,7610,41148,0,0,0,0,0.00,0.00,0.00,0.00
2014-03-27 02:40:00,2,31633,0,0.00,2,2,0,2,21658,41599,6405,32222,0,0,0,0,0.00,0.00,0.00,0.00
2014-03-27 02:50:00,2,28936,0,0.00,2,2,0,2,17825,47595,8738,28096,0,0,0,0,0.00,0.00,0.00,0.00
2014-03-27 03:00:00,2,34488,0,0.00,2,2,0,2,21414,41621,6422,35046,0,0,0,0,0.00,0.00,0.00,0.00
2014-03-27 03:10:00,2,32559,0,0.00,2,2,0,2,22556,42711,6494,34087,0,0,0,0,0.00,0.00,0.00,0.00
2014-03-27 03:20:00,2,36409,0,0.00,2,2,0,2,18450,50000,8784,36228,0,0,0,0,0.00,0.00,0.00,0.00
2014-03-27 03:30:00,2,31666,0,0.00,2,2,0,2,25067,43133,5916,31144,0,0,0,0,0.00,0.00,0.00,0.00
2014-03-27 03:40:00,2,37536,0,0.00,2,2,0,2,22876,50000,8787,39145,0,0,0,0,0.00,0.00,0.00,0.00
2014-03-27 03:50:00,2,36465,0,0.00,2,2,0,2,20869,50000,9170,36580,0,0,0,0,0.00,0.00,0.00,0.00
2014-03-27 04:00:00,2,38647,0,0.00,2,2,0,2,18566,50000,10020,38074,0,0,0,0,0.00,0.00,0.00,0.00
2014-03-27 04:10:00,2,36006,0,0.00,2,2,0,2,25781,50000,9086,33225,0,0,0,0,0.00,0.00,0.00,0.00
2014-03-27 04:20:00,2,30736,0,0.00,2,2,0,2,25289,38385,3977,29786,0,0,0,0,0.00,0.00,0.00,0.00
2014-03-27 04:30:00,2,31244,0,0.00,2,2,0,2,16328,40646,6968,33238,0,0,0,0,0.00,0.00,0.00,0.00
2014-03-27 04:40:00,2,29660,0,0.00,2,2,0,2,17498,43654,9292,25455,0,0,0,0,0.00,0.00,0.00,0.00
2014-03-27 04:50:00,2,31946,0,0.00,2,2,0,2,16277,50000,8687,31434,0,0,0,0,0.00,0.00,0.00,0.00
2014-03-27 05:00:00,2,37634,0,0.00,2,2,0,2,31143,47046,4864,36882,0,0,0,0,0.00,0.00,0.00,0.00
2014-03-27 05:10:00,2,31216,0,0.00,2,2,0,2,17240,50000,8746,29198,0,0,0,0,0.00,0.00,0.00,0.00
2014-03-27 05:20:00,2,26424,0,0.00,2,2,0,2,14851,45212,8396,22966,0,0,0,0,0.00,0.00,0.00,0.00
2014-03-27 05:30:00,2,28355,0,0.00,2,2,0,2,19746,43807,7635,26837,0,0,0,0,0.00,0.00,0.00,0.00
2014-03-27 05:40:00,2,33559,0,0.00,2,2,0,2,19485,50000,10224,31626,0,0,0,0,0.00,0.00,0.00,0.00
2014-03-27 05:50:00,2,34089,0,0.00,2,2,0,2,18159,50000,10191,37213,0,0,0,0,0.00,0.00,0.00,0.00
2014-03-27 06:00:00,2,28274,0,0.00,2,2,0,2,12778,39646,8911,29318,0,0,0,0,0.00,0.00,0.00,0.00
2014-03-27 06:10:00,2,27111,0,0.00,2,2,0,2,17698,41192,8348,25384,0,0,0,0,0.00,0.00,0.00,0.00
2014-03-27 06:20:00,2,34540,0,0.00,2,2,0,2,22994,45957,7199,37134,0,0,0,0,0.00,0.00,0.00,0.00
2014-03-27 06:30:00,2,40915,0,0.00,2,2,0,2,31817,50000,6946,42164,0,0,0,0,0.00,0.00,0.00,0.00
2014-03-27 06:40:00,2,37089,0,0.00,2,2,0,2,22042,50000,9396,34848,0,0,0,0,0.00,0.00,0.00,0.00
2014-03-27 06:50:00,2,32886,0,0.00,2,2,0,2,19673,50000,8400,31328,0,0,0,0,0.00,0.00,0.00,0.00
2014-03-27 07:00:00,2,34984,0,0.00,2,2,0,2,15276,50000,9325,34737,0,0,0,0,0.00,0.00,0.00,0.00
2014-03-27 07:10:00,2,38667,0,0.00,2,2,0,2,24721,48728,8813,40602,0,0,0,0,0.00,0.00,0.00,0.00
2014-03-27 07:20:00,2,34723,0,0.00,2,2,0,2,16104,50000,11327,34030,0,0,0,0,0.00,0.00,0.00,0.00
2014-03-27 07:30:00,2,36529,0,0.00,2,2,0,2,22357,45371,6872,38099,0,0,0,0,0.00,0.00,0.00,0.00
2014-03-27 07:40:00,2,29332,0,0.00,2,2,0,2,21149,35133,4297,30027,0,0,0,0,0.00,0.00,0.00,0.00
2014-03-27 07:50:00,2,38466,0,0.00,2,2,0,2,27040,47804,5769,38251,0,0,0,0,0.00,0.00,0.00,0.00
2014-03-27 08:00:00,2,37727,0,0.00,2,2,0,2,24217,50000,8280,37112,0,0,0,0,0.00,0.00,0.00,0.00
2014-03-27 08:10:00,2,41542,0,0.00,2,2,0,2,30616,50000,6978,42212,0,0,0,0,0.00,0.00,0.00,0.00
2014-03-27 08:20:00,2,41466,0,0.00,2,2,0,2,28137,50000,7796,41258,0,0,0,0,0.00,0.00,0.00,0.00
2014-03-27 08:30:00,2,36592,0,0.00,2,2,0,2,23853,50000,8538,36572,0,0,0,0,0.00,0.00,0.00,0.00
2014-03-27 08:40:00,2,40840,0,0.00,2,2,0,2,29045,50000,7885,39440,0,0,0,0,0.00,0.00,0.00,0.00
2014-03-27 08:50:00,2,42416,0,0.00,2,2,0,2,35302,50000,4652,41918,0,0,0,0,0.00,0.00,0.00,0.00
2014-03-27 09:00:00,2,44963,0,0.00,2,2,0,2,37074,50000,3775,45934,0,0,0,0,0.00,0.00,0.00,0.00
2014-03-27 09:10:00,2,34494,0,0.00,2,2,0,2,26662,39384,3750,33676,0,0,0,0,0.00,0.00,0.00,0.00
2014-03-27 09:20:00,2,42502,0,0.00,2,2,0,2,33013,50000,5882,40992,0,0,0,0,0.00,0.00,0.00,0.00
2014-03-27 09:30:00,2,47965,0,0.00,2,2,0,2,43647,50000,2108,48501,0,0,0,0,0.00,0.00,0.00,0.00
2014-03-27 09:40:00,2,45884,0,0.00,2,2,0,2,39654,50000,3004,45458,0,0,0,0,0.00,0.00,0.00,0.00
2014-03-27 09:50:00,2,42297,0,0.00,2,2,0,2,35509,50000,4784,41140,0,0,0,0,0.00,0.00,0.00,0.00
2014-03-27 10:00:00,2,46473,0,0.00,2,2,0,2,40664,49955,3279,47956,0,0,0,0,0.00,0.00,0.00,0.00
2014-03-27 10:10:00,2,44755,0,0.00,2,2,0,2,39119,50000,3199,44640,0,0,0,0,0.00,0.00,0.00,0.00
2014-03-27 10:20:00,2,46007,0,0.00,2,2,0,2,38348,50000,3822,46648,0,0,0,0,0.00,0.00,0.00,0.00
2014-03-27 10:30:00,2,48862,0,0.00,2,2,0,2,47311,50000,957,48885,0,0,0,0,0.00,0.00,0.00,0.00
2014-03-27 10:40:00,2,49320,0,0.00,2,2,0,2,47406,50000,862,49855,0,0,0,0,0.00,0.00,0.00,0.00
2014-03-27 10:50:00,2,49239,0,0.00,2,2,0,2,46605,50000,1021,49615,0,0,0,0,0.00,0.00,0.00,0.00
2014-03-27 11:00:00,2,49300,0,0.00,2,2,0,2,46936,50000,1138,50000,0,0,0,0,0.00,0.00,0.00,0.00
2014-03-27 11:10:00,2,47428,0,0.00,2,2,0,2,43337,50000,2323,48240,0,0,0,0,0.00,0.00,0.00,0.00
2014-03-27 11:20:00,2,43408,0,0.00,2,2,0,2,37916,50000,3833,42139,0,0,0,0,0.00,0.00,0.00,0.00
2014-03-27 11:30:00,2,46398,0,0.00,2,2,0,2,39260,50000,3520,47272,0,0,0,0,0.00,0.00,0.00,0.00
2014-03-27 11:40:00,2,42955,0,0.00,2,2,0,2,36337,47557,3395,42901,0,0,0,0,0.00,0.00,0.00,0.00
2014-03-27 11:50:00,2,43373,0,0.00,2,2,0,2,39001,48801,2552,43272,0,0,0,0,0.00,0.00,0.00,0.00
2014-03-27 12:00:00,2,41523,0,0.00,2,2,0,2,35257,46772,3767,41908,0,0,0,0,0.00,0.00,0.00,0.00
2014-03-27 12:10:00,2,42029,0,0.00,2,2,0,2,34551,47998,4171,41950,0,0,0,0,0.00,0.00,0.00,0.00
2014-03-27 12:20:00,2,45580,0,0.00,2,2,0,2,41237,50000,2623,44970,0,0,0,0,0.00,0.00,0.00,0.00
2014-03-27 12:30:00,2,49407,0,0.00,2,2,0,2,46676,50000,983,49942,0,0,0,0,0.00,0.00,0.00,0.00
2014-03-27 12:40:00,2,47749,0,0.00,2,2,0,2,42111,50000,2885,49992,0,0,0,0,0.00,0.00,0.00,0.00
2014-03-27 12:50:00,2,47841,0,0.00,2,2,0,2,44891,50000,1733,47614,0,0,0,0,0.00,0.00,0.00,0.00
2014-03-27 13:00:00,2,43709,0,0.00,2,2,0,2,38144,48919,3384,44480,0,0,0,0,0.00,0.00,0.00,0.00
2014-03-27 13:10:00,2,44659,0,0.00,2,2,0,2,40398,47063,1878,45138,0,0,0,0,0.00,0.00,0.00,0.00
2014-03-27 13:20:00,2,40026,0,0.00,2,2,0,2,32192,48604,5910,38703,0,0,0,0,0.00,0.00,0.00,0.00
2014-03-27 13:30:00,2,39568,0,0.00,2,2,0,2,33011,46253,4361,39486,0,0,0,0,0.00,0.00,0.00,0.00
2014-03-27 13:40:00,2,44358,0,0.00,2,2,0,2,36364,50000,3654,44759,0,0,0,0,0.00,0.00,0.00,0.00
2014-03-27 13:50:00,2,43195,0,0.00,2,2,0,2,36662,49891,3914,42840,0,0,0,0,0.00,0.00,0.00,0.00
2014-03-27 14:00:00,2,47591,0,0.00,2,2,0,2,42275,50000,2670,48934,0,0,0,0,0.00,0.00,0.00,0.00
2014-03-27 14:10:00,2,47170,0,0.00,2,2,0,2,42328,50000,2546,46582,0,0,0,0,0.00,0.00,0.00,0.00
2014-03-27 14:20:00,2,44273,0,0.00,2,2,0,2,38797,50000,4186,43212,0,0,0,0,0.00,0.00,0.00,0.00
2014-03-27 14:30:00,2,48121,0,0.00,2,2,0,2,41943,50000,2537,49254,0,0,0,0,0.00,0.00,0.00,0.00
2014-03-27 14:40:00,2,48156,0,0.00,2,2,0,2,42869,50000,2014,48484,0,0,0,0,0.00,0.00,0.00,0.00
2014-03-27 14:50:00,2,47240,0,0.00,2,2,0,2,38389,50000,3346,48181,0,0,0,0,0.00,0.00,0.00,0.00
2014-03-27 15:00:00,2,48042,0,0.00,2,2,0,2,44524,50000,1891,48167,0,0,0,0,0.00,0.00,0.00,0.00
2014-03-27 15:10:00,2,45649,0,0.00,2,2,0,2,40906,48766,2590,46015,0,0,0,0,0.00,0.00,0.00,0.00
2014-03-27 15:20:00,2,39864,0,0.00,2,2,0,2,33645,44801,3336,40224,0,0,0,0,0.00,0.00,0.00,0.00
2014-03-27 15:30:00,2,41567,0,0.00,2,2,0,2,37061,46938,2902,42075,0,0,0,0,0.00,0.00,0.00,0.00
2014-03-27 15:40:00,2,43938,0,0.00,2,2,0,2,40027,49619,2825,43238,0,0,0,0,0.00,0.00,0.00,0.00
2014-03-27 15:50:00,2,39471,0,0.00,2,2,0,2,34144,44429,3755,41344,0,0,0,0,0.00,0.00,0.00,0.00
2014-03-27 16:00:00,2,36895,0,0.00,2,2,0,2,33131,41274,2210,36494,0,0,0,0,0.00,0.00,0.00,0.00
2014-03-27 16:10:00,2,38968,0,0.00,2,2,0,2,33929,43020,3002,38662,0,0,0,0,0.00,0.00,0.00,0.00
2014-03-27 16:20:00,2,45691,0,0.00,2,2,0,2,37665,50000,4553,48144,0,0,0,0,0.00,0.00,0.00,0.00
2014-03-27 16:30:00,2,40386,0,0.00,2,2,0,2,29997,50000,6498,38061,0,0,0,0,0.00,0.00,0.00,0.00
2014-03-27 16:40:00,2,45616,0,0.00,2,2,0,2,36655,50000,5131,48220,0,0,0,0,0.00,0.00,0.00,0.00
2014-03-27 16:50:00,2,35256,0,0.00,2,2,0,2,24504,44829,6023,34024,0,0,0,0,0.00,0.00,0.00,0.00
2014-03-27 17:00:00,2,30316,0,0.00,2,2,0,2,27254,32283,1735,30378,0,0,0,0,0.00,0.00,0.00,0.00
2014-03-27 17:10:00,2,38725,0,0.00,2,2,0,2,32074,43608,4283,39798,0,0,0,0,0.00,0.00,0.00,0.00
2014-03-27 17:20:00,2,25105,0,0.00,2,2,0,2,20482,31227,3106,25050,0,0,0,0,0.00,0.00,0.00,0.00
2014-03-27 17:30:00,2,24192,0,0.00,2,2,0,2,19422,27624,2481,24700,0,0,0,0,0.00,0.00,0.00,0.00
2014-03-27 17:40:00,2,23753,14,0.01,2,2,0,2,11032,35287,7979,23959,0,71,28,0,0.00,0.05,0.02,0.00
2014-03-27 17:50:00,2,17576,62,0.00,2,2,0,2,13347,19927,1715,17978,0,78,31,78,0.00,0.00,0.00,0.00
2014-03-27 18:00:00,2,16726,0,0.00,2,2,0,2,15357,17631,702,16730,0,0,0,0,0.00,0.00,0.00,0.00
2014-03-27 18:10:00,2,17176,0,0.00,2,2,0,2,15492,19528,1322,16954,0,0,0,0,0.00,0.00,0.00,0.00
2014-03-27 18:20:00,2,16637,0,0.00,2,2,0,2,13540,24113,2878,15464,0,0,0,0,0.00,0.00,0.00,0.00
2014-03-27 18:30:00,2,18035,50,0.01,2,2,0,2,9953,24547,4230,17635,0,78,33,71,0.00,0.10,0.03,0.00
2014-03-27 18:40:00,2,23036,37,0.00,2,2,0,2,19235,29678,3086,22567,0,78,37,36,0.00,0.00,0.00,0.00
2014-03-27 18:50:00,1,21222,78,0.00,1,2,0,1,21222,21222,0,21222,78,78,0,78,0.00,0.00,0.00,0.00
2014-03-27 19:00:00,1,0,71,0.00,1,2,0,1,0,0,0,0,71,71,0,71,0.00,0.00,0.00,0.00
2014-03-27 19:10:00,1,,,,1,1,0,1,,,,,,,,,,,,
2014-03-27 19:20:00,1,,,,1,1,0,1,,,,,,,,,,,,
2014-03-27 19:30:00,1,,,,1,1,0,1,,,,,,,,,,,,
2014-03-27 19:40:00,1,,,,1,1,0,1,,,,,,,,,,,,
2014-03-27 19:50:00,2,10891,71,0.28,1,2,0,2,5676,16925,3800,10726,71,71,0,71,0.00,0.75,0.27,0.17
2014-03-27 20:00:00,2,17078,64,0.09,2,2,0,2,8592,25091,5322,16784,0,71,21,71,0.00,0.35,0.12,0.03
2014-03-27 20:10:00,2,20647,21,0.03,2,2,0,2,12436,25853,4446,22240,0,71,33,0,0.00,0.15,0.05,0.00
2014-03-27 20:20:00,2,27142,43,0.02,2,2,0,2,21609,37278,5517,25172,0,71,35,71,0.00,0.10,0.03,0.00
2014-03-27 20:30:00,1,32539,0,0.00,1,2,0,1,31177,33901,1362,32539,0,0,0,0,0.00,0.00,0.00,0.00
2014-03-27 20:40:00,2,22238,71,0.09,1,2,0,2,0,48097,15849,27326,71,71,0,71,0.00,0.30,0.12,0.00
2014-03-27 20:50:00,2,14166,71,0.13,2,2,0,2,6464,24682,6944,10588,71,71,0,71,0.00,0.35,0.14,0.10
2014-03-27 21:00:00,2,7759,71,0.64,2,2,0,2,2239,22612,5412,7128,71,71,0,71,0.00,2.60,0.71,0.38
2014-03-27 21:10:00,2,24774,0,0.00,2,2,0,2,19948,42372,6626,22694,0,0,0,0,0.00,0.00,0.00,0.00
2014-03-27 21:20:00,2,39273,0,0.00,2,2,0,2,32063,44520,4629,40566,0,0,0,0,0.00,0.00,0.00,0.00
2014-03-27 21:30:00,1,25943,0,0.00,1,2,0,1,25677,26209,266,25943,0,0,0,0,0.00,0.00,0.00,0.00
2014-03-27 21:40:00,1,,,,1,1,0,1,,,,,,,,,,,,
2014-03-27 21:50:00,1,,,,1,1,0,1,,,,,,,,,,,,
2014-03-27 22:00:00,1,23380,,0.00,1,2,0,1,0,40836,17189,29304,,,,,0.00,0.00,0.00,0.00
2014-03-27 22:10:00,1,,,,1,1,0,1,,,,,,,,,,,,
2014-03-27 22:20:00,1,,,,1,1,0,1,,,,,,,,,,,,
2014-03-27 22:30:00,1,,,,1,1,0,1,,,,,,,,,,,,
2014-03-27 22:40:00,1,,,,1,1,0,1,,,,,,,,,,,,
2014-03-27 22:50:00,1,,,,1,1,0,1,,,,,,,,,,,,
2014-03-27 23:00:00,1,,,,1,1,0,1,,,,,,,,,,,,
2014-03-27 23:10:00,1,,,,1,1,0,1,,,,,,,,,,,,
2014-03-27 23:20:00,1,,,,1,1,0,1,,,,,,,,,,,,
2014-03-27 23:30:00,1,,,,1,1,0,1,,,,,,,,,,,,
2014-03-27 23:40:00,1,,,,1,1,0,1,,,,,,,,,,,,
2014-03-27 23:50:00,1,,,,1,1,0,1,,,,,,,,,,,,
